Tracking 28790 objects as of 18-Apr-2024
HD Live streaming from Space Station
objects crossing your sky now

STARLINK-2113

Track STARLINK-2113 now!
10-day predictions
STARLINK-2113 is classified as:


NORAD ID: 47392
Int'l Code: 2021-005AV
Perigee: 553.1 km
Apogee: 555.6 km
Inclination: 53.1 °
Period: 95.6 minutes
Semi major axis: 6925 km
RCS: Unknown
Launch date: January 20, 2021
Source: United States (US)
Launch site: AIR FORCE EASTERN TEST RANGE (AFETR)
Your satellite tracking list
Your tracking list is empty




NASA's NSSDC Master Catalog

Two Line Element Set (TLE):
1 47392U 21005AV  24108.72172722 -.00004943  00000-0 -31316-3 0  9997
2 47392  53.0532 253.4898 0001776  94.4884 265.6308 15.06398809179312
Source of the keplerian elements: AFSPC